[[{"header":{"parameterUnit":"m.s-1","parameterCategory":1,"la1":30.2991,"la2":30.254,"lo1":-89.0895,"lo2":-89.0444,"dy":0.0017,"dx":0.0017,"nx":28,"ny":28,"refTime":"2024-07-07T09:00:00:Z","depth":0,"parameterNumber":2,"parameterNumberName":"U-component_of_WINDS"},"data":[0,0,0,0,0,0,0,0,0,0,0,0,0,0,0,0,0,0,0,0,0,0,0,0,0,0,0,0,0,0,0,0,0,0,0,0,0,0,0,0,0,0,0,0,0,0,0,0,0,0,0,0,0,0,0,0,0,0,-0.5303,-0.5303,0,-0.5299,-0.5298,-0.5298,-0.5296,-0.5296,-0.5296,-0.5296,-0.5292,-0.5292,-0.5292,0,0,0,0,0,0,0,0,0,0,0,0,0,-0.531,-0.531,-0.5303,-0.5303,-0.5303,-0.5299,-0.5298,-0.5298,-0.5296,-0.5296,-0.5296,-0.5296,-0.5292,-0.5292,-0.5292,0,0,0,0,0,0,0,0,0,0,0,0,0,-0.5307,-0.531,-0.5303,-0.5301,-0.5301,-0.5299,-0.5298,-0.5298,-0.5296,-0.5296,-0.5296,-0.5296,-0.5292,-0.5292,-0.5292,-0.5291,0,0,-0.5292,-0.5291,0,0,0,0,0,0,0,0,-0.5307,-0.5306,-0.5302,-0.5301,-0.5301,-0.5298,-0.53,-0.5296,-0.5296,-0.5298,-0.5296,-0.5296,-0.5294,-0.5294,-0.5293,-0.5291,-0.5291,-0.5292,-0.5291,-0.5291,-0.5291,0,0,0,0,0,0,0,-0.5307,-0.5306,-0.5301,-0.5301,-0.5301,-0.5301,-0.53,-0.5299,-0.5296,-0.5298,-0.5298,-0.5297,-0.5294,-0.5293,-0.5293,-0.5291,-0.5292,-0.5291,-0.5291,-0.5291,-0.5287,-0.5287,0,0,0,0,0,0,-0.5307,-0.5307,-0.5301,-0.5301,-0.5304,-0.5301,-0.53,-0.5299,-0.5296,-0.5296,-0.5297,-0.5297,-0.5294,-0.5293,-0.5293,-0.5292,-0.5291,-0.5291,-0.5291,-0.5287,-0.5287,-0.5287,0,0,0,0,0,0,-0.5308,-0.5307,-0.5302,-0.5304,-0.5303,-0.5301,-0.5299,-0.5299,-0.5298,-0.5296,-0.5295,-0.5297,-0.5293,-0.5293,-0.5291,-0.5291,-0.5291,-0.5291,-0.5287,-0.5287,-0.5287,-0.5289,0,0,0,0,0,0,-0.5308,-0.5307,-0.5306,-0.5304,-0.5303,-0.53,-0.5299,-0.5299,-0.5298,-0.5298,-0.5295,-0.5295,-0.5293,-0.5292,-0.5291,-0.5291,-0.5291,-0.5287,-0.5287,-0.5287,-0.5289,-0.5289,-0.5289,0,0,0,0,0,-0.5308,-0.5307,-0.5306,-0.5306,-0.5302,-0.53,-0.53,-0.5298,-0.5298,-0.5297,-0.5296,-0.5295,-0.5291,-0.5292,-0.5291,-0.5291,-0.5287,-0.5287,-0.5287,-0.5289,-0.5289,-0.5289,0,0,0,0,0,0,-0.531,-0.5307,-0.5306,-0.5304,-0.5302,-0.53,-0.5299,-0.5298,-0.5297,-0.5296,-0.5295,-0.5294,-0.5293,-0.5292,-0.5292,-0.529,-0.5289,-0.5289,-0.5291,-0.5291,-0.5291,-0.5291,-0.5291,0,0,0,0,0,-0.531,-0.5308,-0.5306,-0.5304,-0.5303,-0.5301,-0.53,-0.5299,-0.5298,-0.5297,-0.5295,-0.5294,-0.5292,-0.5291,-0.529,-0.5289,-0.5288,-0.5288,-0.5288,-0.5288,-0.5288,-0.5288,-0.5288,-0.5287,-0.5287,-0.5287,0,0,-0.531,-0.5308,-0.5307,-0.5305,-0.5303,-0.5302,-0.5301,-0.5299,-0.5298,-0.5297,-0.5295,-0.5294,-0.5292,-0.5291,-0.529,-0.529,-0.5288,-0.5288,-0.5289,-0.5288,-0.5288,-0.5288,-0.5288,-0.5287,-0.5287,-0.5287,0,0,-0.531,-0.5308,-0.5307,-0.5306,-0.5303,-0.5302,-0.5302,-0.5299,-0.5299,-0.5297,-0.5296,-0.5295,-0.5292,-0.5291,-0.529,-0.529,-0.5289,-0.5289,-0.529,-0.5289,-0.5289,-0.5289,-0.5289,-0.5289,-0.5289,-0.5289,-0.5289,0,-0.5311,-0.5308,-0.5306,-0.5305,-0.5304,-0.5302,-0.5301,-0.53,-0.5298,-0.5297,-0.5297,-0.5294,-0.5292,-0.5291,-0.5291,-0.529,-0.529,-0.529,-0.529,-0.529,-0.529,-0.529,-0.529,-0.5289,-0.5289,-0.5289,-0.5289,0,-0.5309,-0.5308,-0.5307,-0.5305,-0.5303,-0.5302,-0.53,-0.5299,-0.5299,-0.5297,-0.5296,-0.5294,-0.5293,-0.5292,-0.5291,-0.529,-0.529,-0.529,-0.5289,-0.529,-0.529,-0.529,-0.529,-0.529,-0.5289,-0.5289,0,0,-0.531,-0.5307,-0.5306,-0.5305,-0.5303,-0.5302,-0.5301,-0.5299,-0.5298,-0.5297,-0.5296,-0.5294,-0.5293,-0.5292,-0.5291,-0.5291,-0.5291,-0.5291,-0.529,-0.5291,-0.529,-0.5291,-0.5291,-0.5291,-0.5291,-0.5291,-0.5291,0,-0.5309,-0.5307,-0.5306,-0.5304,-0.5302,-0.5301,-0.53,-0.5299,-0.5298,-0.5297,-0.5295,-0.5294,-0.5293,-0.5293,-0.5292,-0.5291,-0.5291,-0.5291,-0.529,-0.529,-0.529,-0.5291,-0.5291,-0.5291,-0.5291,-0.5291,-0.5291,0,-0.5308,-0.5307,-0.5305,-0.5303,-0.5303,-0.5302,-0.53,-0.5299,-0.5297,-0.5297,-0.5296,-0.5295,-0.5294,-0.5293,-0.5292,-0.5292,-0.5291,-0.5291,-0.5291,-0.5291,-0.529,-0.5291,-0.5291,-0.5291,-0.5291,-0.5291,-0.5291,0,-0.5309,-0.5307,-0.5305,-0.5305,-0.5302,-0.5302,-0.5301,-0.5299,-0.5298,-0.5297,-0.5296,-0.5295,-0.5294,-0.5293,-0.5292,-0.5292,-0.5291,-0.529,-0.529,-0.5291,-0.529,-0.529,-0.5291,-0.529,-0.529,-0.529,-0.529,0,-0.5309,-0.5308,-0.5306,-0.5305,-0.5304,-0.5302,-0.5301,-0.53,-0.5299,-0.5298,-0.5297,-0.5296,-0.5294,-0.5293,-0.5292,-0.5292,-0.5291,-0.5291,-0.5291,-0.5291,-0.5291,-0.529,-0.529,-0.529,-0.529,-0.529,-0.529,0,-0.531,-0.5308,-0.5307,-0.5304,-0.5304,-0.5303,-0.5302,-0.5301,-0.53,-0.5299,-0.5298,-0.5297,-0.5296,-0.5294,-0.5293,-0.5292,-0.5291,-0.5291,-0.5292,-0.5292,-0.5292,-0.5292,-0.5292,-0.5292,-0.5291,-0.5291,-0.5291,0,-0.5309,-0.5309,-0.5307,-0.5306,-0.5305,-0.5304,-0.5303,-0.5301,-0.5301,-0.5299,-0.5299,-0.5297,-0.5296,-0.5295,-0.5293,-0.5292,-0.5292,-0.5292,-0.5292,-0.5292,-0.5292,-0.5292,-0.5292,-0.5292,-0.5292,-0.5292,-0.5292,0,-0.531,-0.5309,-0.5308,-0.5306,-0.5305,-0.5304,-0.5303,-0.5302,-0.5301,-0.53,-0.5299,-0.5298,-0.5296,-0.5295,-0.5294,-0.5293,-0.5292,-0.5292,-0.5292,-0.5293,-0.5293,-0.5293,-0.5292,-0.5292,-0.5292,-0.5292,-0.5292,-0.5292,-0.531,-0.5309,-0.5308,-0.5306,-0.5305,-0.5304,-0.5304,-0.5302,-0.5301,-0.53,-0.5299,-0.5298,-0.5297,-0.5295,-0.5294,-0.5294,-0.5293,-0.5293,-0.5293,-0.5293,-0.5293,-0.5293,-0.5293,-0.5293,-0.5293,-0.5293,-0.5293,0,-0.531,-0.5309,-0.5308,-0.5306,-0.5305,-0.5305,-0.5303,-0.5303,-0.5302,-0.5301,-0.53,-0.5298,-0.5297,-0.5296,-0.5295,-0.5295,-0.5294,-0.5294,-0.5294,-0.5294,-0.5294,-0.5294,-0.5295,-0.5295,-0.5295,-0.5295,-0.5295,-0.5295,-0.531,-0.5309,-0.5308,-0.5306,-0.5306,-0.5304,-0.5304,-0.5303,-0.5302,-0.5301,-0.53,-0.5299,-0.5298,-0.5297,-0.5296,-0.5295,-0.5295,-0.5295,-0.5295,-0.5294,-0.5294,-0.5294,-0.5294,-0.5295,-0.5295,-0.5296,-0.5296,-0.5296]},{"header":{"parameterUnit":"m.s-1","parameterCategory":1,"la1":30.2991,"la2":30.254,"lo1":-89.0895,"lo2":-89.0444,"dy":0.0017,"dx":0.0017,"nx":28,"ny":28,"refTime":"2024-07-07T09:00:00:Z","depth":0,"parameterNumber":3,"parameterNumberName":"V-component_of_WINDS"},"data":[0,0,0,0,0,0,0,0,0,0,0,0,0,0,0,0,0,0,0,0,0,0,0,0,0,0,0,0,0,0,0,0,0,0,0,0,0,0,0,0,0,0,0,0,0,0,0,0,0,0,0,0,0,0,0,0,0,0,5.714,5.714,0,5.7188,5.7189,5.7189,5.7107,5.7104,5.7101,5.7099,5.7145,5.7149,5.7153,0,0,0,0,0,0,0,0,0,0,0,0,0,5.6971,5.6974,5.7139,5.714,5.7141,5.7188,5.7189,5.7189,5.7107,5.7104,5.7101,5.7097,5.7144,5.7149,5.7153,0,0,0,0,0,0,0,0,0,0,0,0,0,5.7034,5.6976,5.7139,5.7106,5.7103,5.7188,5.7189,5.719,5.7108,5.7104,5.71,5.7096,5.7143,5.7148,5.7154,5.7273,0,0,5.7171,5.7174,0,0,0,0,0,0,0,0,5.7031,5.7041,5.711,5.7108,5.7105,5.7137,5.7146,5.7217,5.7109,5.7106,5.7099,5.7094,5.7146,5.7151,5.7169,5.7275,5.7277,5.7172,5.7175,5.7178,5.718,0,0,0,0,0,0,0,5.7027,5.7038,5.7159,5.7111,5.7108,5.7086,5.7091,5.7159,5.7149,5.7106,5.71,5.7107,5.7144,5.7164,5.717,5.7278,5.7172,5.7177,5.718,5.7183,5.7481,5.7485,0,0,0,0,0,0,5.7027,5.7035,5.7157,5.716,5.7057,5.7093,5.7098,5.7131,5.7148,5.7146,5.7111,5.7103,5.7156,5.7163,5.7171,5.7309,5.7178,5.7183,5.7187,5.7476,5.7482,5.7487,0,0,0,0,0,0,5.7024,5.7039,5.7155,5.7096,5.7109,5.71,5.7138,5.7134,5.7154,5.7151,5.7149,5.7134,5.7153,5.7163,5.7248,5.731,5.7186,5.7191,5.7471,5.7478,5.7484,5.7588,0,0,0,0,0,0,5.7019,5.7038,5.7084,5.7098,5.7113,5.7233,5.7142,5.7138,5.7165,5.7156,5.7172,5.7171,5.7151,5.724,5.7254,5.7315,5.7196,5.7465,5.7474,5.7482,5.7579,5.7597,5.7613,0,0,0,0,0,5.7013,5.7112,5.7087,5.7102,5.7171,5.7237,5.7245,5.7221,5.717,5.7216,5.7213,5.717,5.7301,5.7249,5.7264,5.7328,5.7461,5.7472,5.7481,5.7571,5.7594,5.7613,0,0,0,0,0,0,5.7105,5.7113,5.7086,5.7191,5.7214,5.7222,5.7279,5.7246,5.7282,5.7272,5.7239,5.7243,5.7334,5.734,5.7282,5.7443,5.7373,5.7386,5.7436,5.7457,5.7474,5.7469,5.72,0,0,0,0,0,5.7138,5.7192,5.7195,5.7288,5.7301,5.7289,5.7316,5.7296,5.7317,5.7326,5.733,5.7351,5.7397,5.7428,5.747,5.758,5.7581,5.7631,5.7649,5.7663,5.7674,5.773,5.7751,5.7519,5.7519,5.7519,0,0,5.7205,5.7216,5.7252,5.7307,5.7322,5.7376,5.7297,5.7359,5.7398,5.7335,5.7415,5.7419,5.744,5.7538,5.7581,5.7545,5.7738,5.7675,5.7687,5.769,5.7742,5.7764,5.7784,5.7526,5.7525,5.7524,0,0,5.7356,5.7371,5.7449,5.7465,5.7489,5.748,5.7499,5.7512,5.7512,5.7592,5.7545,5.7591,5.7672,5.7688,5.7707,5.7863,5.7823,5.7878,5.7966,5.8021,5.8039,5.8055,5.8107,5.8127,5.7889,5.789,5.789,0,5.7436,5.7519,5.7493,5.7557,5.7581,5.7527,5.7604,5.7621,5.7658,5.7674,5.7635,5.7733,5.7744,5.7843,5.7881,5.7899,5.7917,5.7874,5.8039,5.8054,5.8069,5.8119,5.8139,5.7896,5.7895,5.7894,5.7894,0,5.7615,5.7673,5.7732,5.7769,5.78,5.787,5.7853,5.7887,5.7864,5.7859,5.7939,5.7951,5.7993,5.8015,5.7993,5.8111,5.8087,5.8044,5.7972,5.8097,5.8143,5.8163,5.7905,5.7902,5.7901,5.7899,0,0,5.7824,5.7845,5.7867,5.7881,5.7903,5.7946,5.8014,5.8056,5.8084,5.8111,5.8165,5.8233,5.8193,5.8214,5.8193,5.8242,5.8361,5.8192,5.8192,5.822,5.8488,5.8518,5.8541,5.8336,5.834,5.8342,5.8485,0,5.7972,5.8088,5.8066,5.8179,5.823,5.8179,5.8237,5.8256,5.8253,5.8294,5.829,5.8338,5.8282,5.8294,5.834,5.8337,5.8414,5.8327,5.8383,5.8385,5.8377,5.8566,5.8599,5.8733,5.8503,5.8506,5.8508,0,5.8159,5.8193,5.8311,5.8323,5.8343,5.8396,5.8431,5.8473,5.8492,5.8486,5.851,5.848,5.8544,5.8473,5.856,5.8502,5.8524,5.8525,5.853,5.8532,5.8453,5.857,5.8775,5.8794,5.8537,5.8535,5.8533,0,5.8296,5.8371,5.8451,5.8465,5.8482,5.852,5.8528,5.8543,5.8569,5.86,5.8616,5.8654,5.8674,5.8703,5.8683,5.8634,5.8773,5.8701,5.8767,5.8768,5.8797,5.8795,5.9005,5.8816,5.8816,5.8815,5.8815,0,5.8462,5.8535,5.8512,5.8561,5.8641,5.8614,5.8694,5.8696,5.871,5.8757,5.8716,5.876,5.8732,5.8774,5.8759,5.8831,5.8842,5.8837,5.8831,5.8839,5.8839,5.8851,5.884,5.8821,5.8819,5.8818,5.8818,0,5.8627,5.8615,5.8698,5.8707,5.8711,5.8769,5.8775,5.882,5.8813,5.8873,5.8885,5.8875,5.8922,5.8905,5.8955,5.8945,5.9037,5.9021,5.903,5.9025,5.9091,5.9084,5.9315,5.9342,5.9138,5.914,5.9141,0,5.8733,5.8788,5.8802,5.8831,5.8842,5.889,5.8915,5.8891,5.8919,5.8945,5.8986,5.9029,5.9062,5.9139,5.9135,5.9173,5.9155,5.9233,5.916,5.9166,5.9153,5.9149,5.9153,5.9247,5.925,5.9251,5.9253,0,5.892,5.8911,5.895,5.8988,5.902,5.9048,5.9072,5.9097,5.9074,5.9108,5.9155,5.9181,5.9232,5.9275,5.9308,5.9315,5.928,5.9276,5.9293,5.93,5.9302,5.9299,5.9067,5.9271,5.9269,5.9268,5.9267,5.9266,5.9056,5.9102,5.9119,5.9164,5.9179,5.9202,5.9244,5.9242,5.9282,5.9321,5.9304,5.9359,5.9374,5.9416,5.9428,5.9468,5.9438,5.9463,5.9469,5.9475,5.9482,5.9298,5.9475,5.9474,5.9474,5.9473,5.9473,0,5.9239,5.9247,5.9289,5.9323,5.9358,5.9323,5.9347,5.9378,5.9427,5.9445,5.9478,5.9532,5.9573,5.9572,5.9609,5.9642,5.9626,5.9652,5.9648,5.965,5.9509,5.9489,5.9664,5.9664,5.9664,5.9664,5.9664,5.9664,5.9338,5.9412,5.9405,5.9486,5.9493,5.9546,5.9563,5.9583,5.9597,5.9659,5.9693,5.9692,5.9702,5.9739,5.9775,5.9773,5.9787,5.9819,5.9811,5.9679,5.966,5.9642,5.9623,5.9823,5.9823,5.9948,5.995,5.995]}]]